CAPE
1042 1121 1099 948 1036 1214 1139 1220 1467 1905 2405 2109 1989 1966 1731 1721 1749 2062 2596 2373 2124 2078 2217 2628 2229 3104 2036 1410 1560 1259 1126 1103 1332 1176 1428 1738 3281 3781 2427 2979 1899 2850 830
1079 1576 1337 1132 913 961 929 1466 1463 1723 3163 2172 2000 1974 1831 1787 2249 2061 1759 1194 1599 1679 1594 2101 1780 1497 2984 3839 1612 3317 1848 2114 1100 2540 1765 1368 2875 3158 3692 3940 1785 1096 1455
2112 1626 1625 1423 1263 1037 1032 1203 1593 1693 1916 2494 2589 2289 2260 2108 2166 2201 2104 1853 1660 1531 1475 1502 1420 1889 2601 1990 2446 2507 1463 1469 2062 1246 1275 1218 1588 1607 2501 3337 3374 2677 1340
1219 2152 2202 1820 1567 1248 957 1267 1343 1599 1909 2384 2195 2107 1888 1906 1928 1807 2103 2161 1857 1569 1634 1547 1479 1464 2290 1904 2724 2844 2746 2325 2006 1479 1034 1035 908 1890 2767 1490 903 857 951
552 1245 1378 1537 1752 1702 1608 1761 1486 1635 1530 2300 1595 1721 1747 1582 1214 2145 2579 2098 2203 1854 1533 1456 1511 1348 1113 1413 1578 3049 3371 2288 1222 885 620 419 393 1665 1399 1433 1385 1234 1551
100 383 939 1149 1280 1476 1783 1777 1743 1782 1621 2327 1903 1640 1802 842 707 894 1089 1658 1815 2070 1952 1899 1916 1376 1185 998 830 784 931 2195 3015 2040 1422 1477 3200 2207 1560 1394 1504 1023 982
286 472 615 634 991 1208 1205 1311 1250 1342 1483 1575 1479 1543 1085 808 834 739 826 1599 2351 2078 2510 2590 2119 972 1490 1864 1404 1108 1073 1093 1109 2525 2935 2911 3091 3519 3512 3593 2979 2788 2174
411 385 428 559 426 441 627 762 893 1121 1093 1324 1244 1501 759 570 681 450 564 1254 2128 1847 1738 2049 2651 2354 1621 1272 2082 2357 2133 2416 1782 1902 2462 3072 3100 3055 3087 3083 3335 3241 2726
180 263 289 335 356 152 76 81 166 357 315 417 599 567 197 223 223 221 348 1930 2013 1110 941 699 1043 813 835 864 582 1528 1891 2155 1499 1140 1038 1015 1043 1046 1071 1189 1581 1442 1533
49 69 180 55 39 26 4 4 183 240 230 129 119 127 105 93 97 139 178 793 959 876 904 380 129 140 97 91 106 114 634 655 281 114 194 503 799 1501 1414 1399 1888 2009 2091
96 118 88 30 27 23 76 69 57 85 80 49 83 97 92 107 90 81 52 79 71 94 95 94 25 11 8 17 30 24 14 2 0 0 0 0 10 373 1734 2373 2132 2293 1368
61 138 95 16 10 26 44 46 173 93 54 48 46 44 40 34 30 31 14 1 26 54 61 52 25 1 0 0 0 0 0 0 4 22 47 52 47 116 88 149 996 1365 1669
277 224 109 70 39 65 79 59 33 0 7 5 2 0 0 0 0 0 0 0 0 0 0 0 0 0 0 0 0 0 0 0 6 7 4 9 5 6 279 88 153 246 1121
223 184 129 82 2 36 78 33 0 4 3 7 1 2 0 0 0 0 0 0 0 0 0 0 0 0 0 0 0 0 0 0 5 19 27 4 1 1 0 0 0 0 0
0 0 0 0 0 1 0 0 0 0 0 0 0 0 0 0 0 0 0 0 0 0 0 0 0 0 0 0 0 0 1 0 0 0 0 0 0 0 0 0 0 0 0
0 0 0 0 0 0 0 0 0 0 0 0 0 0 0 0 0 0 0 0 0 0 0 0 0 0 0 0 0 0 0 0 0 0 0 0 0 0 0 0 0 0 0
0 0 0 0 0 0 0 0 0 0 0 0 0 0 0 0 0 0 0 0 0 0 0 0 0 0 0 0 0 0 0 0 0 0 0 0 0 0 0 0 0 0 0
0 0 0 0 0 0 0 0 0 0 0 0 0 0 0 0 0 0 0 0 0 0 0 0 0 0 0 0 0 0 0 0 0 0 0 0 0 0 0 0 0 0 0
0 0 0 0 0 0 0 0 0 0 0 0 0 0 0 0 0 0 0 0 0 0 0 0 0 0 0 0 0 0 0 0 0 0 0 0 0 0 0 0 0 0 0
0 0 0 0 0 0 0 0 0 0 0 0 0 0 0 0 0 0 0 0 0 0 0 0 0 0 0 0 0 0 0 0 0 0 0 0 0 0 0 0 0 0 0
0 0 0 0 0 0 0 0 0 0 0 0 0 0 0 0 0 0 0 0 0 0 0 0 0 0 0 0 0 0 0 0 0 0 0 0 0 0 0 0 0 0 0
0 0 0 0 0 0 0 0 0 0 0 0 0 0 0 0 0 0 0 0 0 0 0 0 0 0 0 0 0 0 0 0 0 0 0 0 0 0 0 0 0 0 0
0 0 0 0 0 0 0 0 0 0 0 0 0 0 0 0 0 0 0 0 0 0 0 0 0 0 0 0 0 0 0 0 0 0 0 0 0 0 0 0 0 0 0
0 0 0 0 0 0 0 0 0 0 0 0 0 0 0 0 0 0 0 0 0 0 0 0 0 0 0 0 0 0 0 0 0 0 0 0 0 0 0 0 0 0 0
0 0 0 0 0 0 0 0 0 0 0 0 0 0 0 0 0 0 0 0 0 0 0 0 0 0 0 0 0 0 0 0 0 0 0 0 0 0 0 0 0 0 0
0 0 0 0 1 0 0 0 0 0 0 0 0 0 0 0 0 0 0 0 0 0 0 0 0 0 0 0 0 0 0 0 0 0 0 0 0 0 0 0 0 0 0
CIN
0 -1 0 0 0 0 0 -1 0 0 0 0 0 0 0 0 0 0 -2 -1 0 0 -1 0 0 0 0 0 -1 0 0 0 0 -1 -3 -3 -8 0 -1 0 -5 -2 -18
0 0 0 0 -1 -1 0 0 -2 0 0 0 0 0 0 0 0 0 0 0 0 0 0 0 -1 0 0 0 -3 0 -1 -1 -4 0 -1 0 -2 0 -1 0 -1 -1 -3
-2 0 0 0 0 0 0 0 0 0 0 0 0 0 0 0 0 0 0 0 -1 -1 -1 0 0 0 0 0 0 0 -1 -1 -1 0 -3 0 0 -1 0 -1 -1 -2 -2
-24 -12 -2 0 0 0 0 0 0 0 0 -1 0 0 0 0 0 0 0 0 0 0 0 0 0 0 0 0 0 0 0 0 0 0 0 0 0 -2 -2 -4 -1 0 0
-16 -8 0 0 0 0 0 -1 0 0 0 0 -5 0 0 0 -2 0 0 0 0 0 0 0 0 -4 -4 -4 -3 0 -2 0 0 0 0 0 0 -9 -2 -1 0 0 -5
-22 -7 0 0 0 0 0 0 0 0 0 0 0 0 0 -3 -2 -12 -6 0 0 0 0 0 0 -5 -20 -37 -46 -66 -53 -5 0 0 0 0 -1 0 0 0 -1 -1 -8
0 -4 0 -1 0 0 0 0 -2 -3 -1 0 0 0 -14 -42 -47 -42 -25 -16 -1 0 0 -1 0 0 -9 -1 -2 -7 -19 -20 -27 -12 0 0 0 0 0 0 -1 0 0
0 0 -12 -1 -4 -4 0 -1 0 0 -1 0 0 0 -26 -59 -44 -35 -37 -39 -6 0 0 0 0 0 -25 -37 -17 -1 0 -1 -18 -13 -1 0 0 -5 0 -1 0 -1 -1
-3 0 0 0 -1 -27 -29 -4 -2 -9 -9 -4 -2 -23 -81 -45 -28 -46 -80 0 0 -3 -24 -52 -22 -28 -36 -42 -58 0 0 0 -2 -1 -11 -16 -28 -21 -16 -15 0 0 0
-43 -43 -2 -30 -56 -44 -22 -3 -17 -5 -2 -39 -61 -62 -104 -96 -68 -45 -23 -3 0 0 -1 -41 -84 -66 -47 -64 -48 -42 -16 -16 -76 -64 -99 -58 -27 -7 -2 -2 0 0 0
-24 -15 -10 -27 -43 -19 -7 -6 -25 -16 -13 -31 -35 -56 -74 -80 -78 -63 -36 -12 -1 -1 -14 -23 -109 -58 -48 -72 -73 -69 -65 -21 0 0 0 0 -25 -47 -5 -4 -2 0 0
-36 -3 -15 -53 -58 -35 -15 -16 -11 -32 -17 -21 -28 -48 -94 -89 -73 -52 -56 -1 0 0 -3 -10 -14 -15 0 0 0 0 0 0 -28 -53 -30 -32 -44 -33 -3 -4 -4 -12 -5
-1 -2 -3 -6 -23 -18 -5 -5 -8 0 0 0 0 -7 0 0 0 0 0 0 0 -2 0 -3 0 0 0 0 0 0 0 0 -42 -17 0 0 -1 0 -7 -9 -25 -22 -1
0 -1 -3 -5 -49 -18 -12 -15 0 0 0 0 0 0 0 0 0 0 0 0 0 0 0 0 0 0 0 0 0 0 0 0 0 0 0 0 0 0 0 0 0 0 0
0 0 0 0 0 -18 0 0 0 0 0 0 0 0 0 0 0 0 0 0 0 0 0 0 0 0 0 0 0 0 -1 0 0 0 0 0 0 0 0 0 0 0 0
0 0 0 0 0 0 0 0 0 0 0 0 0 0 0 0 0 0 0 0 0 0 0 0 0 0 0 0 0 0 0 0 0 0 0 0 0 0 0 0 0 0 0
0 0 0 0 0 0 0 0 0 0 0 0 0 0 0 0 0 0 0 0 0 0 0 0 0 0 0 0 0 0 0 0 0 0 0 0 0 0 0 0 0 0 0
0 0 0 0 0 0 0 0 0 0 0 0 0 0 0 0 0 0 0 0 0 0 0 0 0 0 0 0 0 0 0 0 0 0 0 0 0 0 0 0 0 0 0
0 0 0 0 0 0 0 0 0 0 0 0 0 0 0 0 0 0 0 0 0 0 0 0 0 0 0 0 0 0 0 0 0 0 0 0 0 0 0 0 0 0 0
0 0 0 0 0 0 0 0 0 0 0 0 0 0 0 0 0 0 0 0 0 0 0 0 0 0 0 0 0 0 0 0 0 0 0 0 0 0 0 0 0 0 0
0 0 0 0 0 0 0 0 0 0 0 0 0 0 0 0 0 0 0 0 0 0 0 0 0 0 0 0 0 0 0 0 0 0 0 0 0 0 0 0 0 0 0
0 0 0 0 0 0 0 0 0 0 0 0 0 0 0 0 0 0 0 0 0 0 0 0 0 0 0 0 0 0 0 0 0 0 0 0 0 0 0 0 0 0 0
0 0 0 0 0 0 0 0 0 0 0 0 0 0 0 0 0 0 0 0 0 0 0 0 0 0 0 0 0 0 0 0 0 0 0 0 0 0 0 0 0 0 0
0 0 0 0 0 0 0 0 0 0 0 0 0 0 0 0 0 0 0 0 0 0 0 0 0 0 0 0 0 0 0 0 0 0 0 0 0 0 0 0 0 0 0
0 0 0 0 0 0 0 0 0 0 0 0 0 0 0 0 0 0 0 0 0 0 0 0 0 0 0 0 0 0 0 0 0 0 0 0 0 0 0 0 0 0 0
0 0 0 0 0 0 0 0 0 0 0 0 0 0 0 0 0 0 0 0 0 0 0 0 0 0 0 0 0 0 0 0 0 0 0 0 0 0 0 0 0 0 0
Wind_Speed
14 15 9 13 11 8 7 5 4 4 3 2 2 2 1 3 3 5 7 11 6 5 6 8 6 6 5 6 8 5 5 5 7 8 14 11 11 6 12 10 8 10 10
19 21 15 14 14 13 9 10 8 8 6 4 3 4 2 5 6 4 4 4 6 5 5 5 4 6 7 6 5 5 6 8 6 7 7 5 6 10 13 14 13 10 9
20 24 22 19 15 14 15 14 12 12 10 5 6 5 5 4 4 6 2 3 3 6 6 6 7 8 10 7 10 10 8 10 10 9 12 9 9 9 10 13 15 11 9
32 30 25 21 22 18 18 18 14 15 14 12 12 11 9 6 5 4 6 4 5 5 7 10 9 9 9 12 10 11 10 11 10 8 8 11 11 10 13 15 13 12 11
30 33 27 23 26 25 24 21 18 17 16 18 15 15 13 12 13 11 9 10 9 9 10 12 10 11 15 15 13 15 17 14 12 13 13 12 12 17 13 11 12 17 10
32 31 32 33 34 30 27 24 22 21 21 20 21 19 19 28 32 31 23 13 14 11 12 13 12 17 15 14 15 13 15 16 17 16 14 14 16 14 12 12 11 10 11
21 32 35 37 35 31 31 28 25 25 28 28 27 26 35 37 35 31 31 21 19 19 16 16 15 16 16 14 17 16 17 19 19 17 15 16 14 15 13 12 11 14 12
19 17 18 32 37 43 28 25 25 27 30 32 33 37 39 39 39 37 31 26 23 23 22 21 20 21 32 25 22 16 16 18 22 22 19 18 17 18 17 15 14 12 12
28 24 19 23 28 31 nan nan 27 27 33 38 43 41 43 44 44 42 36 35 40 43 40 38 35 35 34 33 27 21 21 22 23 25 24 21 20 20 23 22 19 17 16
nan nan 31 nan nan nan nan nan 34 39 39 30 31 39 44 nan nan 52 44 33 40 46 47 46 41 41 nan nan 32 33 30 36 33 31 29 28 28 30 27 30 28 29 30
nan 27 nan nan nan nan nan nan nan nan nan nan nan nan nan 53 nan nan nan nan nan nan nan nan nan nan nan nan nan nan nan nan nan nan nan nan nan 35 38 38 36 36 33
nan 32 nan nan nan nan nan nan 33 nan nan nan nan nan nan nan nan nan nan nan nan nan nan nan nan nan nan nan nan nan nan nan nan nan nan nan nan 45 nan 45 43 42 40
37 36 35 nan nan nan nan nan nan nan nan nan nan nan nan nan nan nan nan nan nan nan nan nan nan nan nan nan nan nan nan nan nan nan nan nan nan nan 40 nan 36 41 40
36 34 34 nan nan nan nan nan nan nan nan nan nan nan nan nan nan nan nan nan nan nan nan nan nan nan nan nan nan nan nan nan nan nan nan nan nan nan nan nan nan nan nan
nan nan nan nan nan nan nan nan nan nan nan nan nan nan nan nan nan nan nan nan nan nan nan nan nan nan nan nan nan nan nan nan nan nan nan nan nan nan nan nan nan nan nan
nan nan nan nan nan nan nan nan nan nan nan nan nan nan nan nan nan nan nan nan nan nan nan nan nan nan nan nan nan nan nan nan nan nan nan nan nan nan nan nan nan nan nan
nan nan nan nan nan nan nan nan nan nan nan nan nan nan nan nan nan nan nan nan nan nan nan nan nan nan nan nan nan nan nan nan nan nan nan nan nan nan nan nan nan nan nan
nan nan nan nan nan nan nan nan nan nan nan nan nan nan nan nan nan nan nan nan nan nan nan nan nan nan nan nan nan nan nan nan nan nan nan nan nan nan nan nan nan nan nan
nan nan nan nan nan nan nan nan nan nan nan nan nan nan nan nan nan nan nan nan nan nan nan nan nan nan nan nan nan nan nan nan nan nan nan nan nan nan nan nan nan nan nan
nan nan nan nan nan nan nan nan nan nan nan nan nan nan nan nan nan nan nan nan nan nan nan nan nan nan nan nan nan nan nan nan nan nan nan nan nan nan nan nan nan nan nan
nan nan nan nan nan nan nan nan nan nan nan nan nan nan nan nan nan nan nan nan nan nan nan nan nan nan nan nan nan nan nan nan nan nan nan nan nan nan nan nan nan nan nan
nan nan nan nan nan nan nan nan nan nan nan nan nan nan nan nan nan nan nan nan nan nan nan nan nan nan nan nan nan nan nan nan nan nan nan nan nan nan nan nan nan nan nan
nan nan nan nan nan nan nan nan nan nan nan nan nan nan nan nan nan nan nan nan nan nan nan nan nan nan nan nan nan nan nan nan nan nan nan nan nan nan nan nan nan nan nan
nan nan nan nan nan nan nan nan nan nan nan nan nan nan nan nan nan nan nan nan nan nan nan nan nan nan nan nan nan nan nan nan nan nan nan nan nan nan nan nan nan nan nan
nan nan nan nan nan nan nan nan nan nan nan nan nan nan nan nan nan nan nan nan nan nan nan nan nan nan nan nan nan nan nan nan nan nan nan nan nan nan nan nan nan nan nan
nan nan nan nan nan nan nan nan nan nan nan nan nan nan nan nan nan nan nan nan nan nan nan nan nan nan nan nan nan nan nan nan nan nan nan nan nan nan nan nan nan nan nan
Wind_Direction
262 258 231 263 266 266 248 228 230 219 181 238 300 272 221 233 226 234 180 218 263 249 200 209 244 222 208 197 218 243 241 232 211 224 213 208 222 279 277 303 318 345 308
266 268 260 237 244 256 242 257 247 248 249 263 288 288 275 256 259 249 245 221 271 260 249 248 251 259 276 285 251 250 250 245 252 239 258 271 279 281 310 313 318 310 310
260 267 263 256 245 236 249 243 249 252 268 263 261 255 250 259 274 278 248 245 225 269 258 258 263 272 275 263 249 243 247 250 262 263 251 264 276 283 303 306 309 313 335
249 230 259 251 245 237 245 248 246 246 256 261 272 268 264 260 282 275 288 233 257 269 269 255 252 260 267 278 284 275 283 275 261 280 287 277 271 288 273 266 277 292 284
235 242 241 238 240 237 228 232 251 249 248 244 247 252 253 262 246 284 285 287 280 263 260 275 290 285 257 253 260 264 254 274 270 251 249 256 265 252 257 269 272 268 287
237 239 248 250 239 240 238 237 235 240 248 253 254 251 252 249 226 225 225 263 278 280 269 272 263 274 288 297 293 286 279 276 280 276 272 273 269 265 261 260 257 272 284
227 237 241 237 238 242 238 240 243 248 245 241 239 240 244 238 227 230 231 243 238 251 245 237 250 261 267 268 297 290 284 299 309 295 294 288 281 281 277 278 282 266 276
301 268 266 245 240 232 227 229 237 250 252 250 253 257 255 243 232 232 240 255 255 243 242 246 247 239 246 241 245 249 266 273 291 293 293 285 286 274 274 279 275 286 300
288 266 287 296 239 235 nan nan 227 239 254 263 255 251 249 243 232 237 235 262 259 257 253 250 251 253 242 239 246 252 252 257 255 274 261 270 274 274 280 276 284 282 273
nan nan 281 nan nan nan nan nan 227 243 260 255 251 246 248 nan nan 237 238 256 268 262 260 261 254 253 nan nan 254 253 252 253 250 252 256 261 270 269 287 291 284 279 276
nan 241 nan nan nan nan nan nan nan nan nan nan nan nan nan 247 nan nan nan nan nan nan nan nan nan nan nan nan nan nan nan nan nan nan nan nan nan 267 271 278 277 276 275
nan 249 nan nan nan nan nan nan 252 nan nan nan nan nan nan nan nan nan nan nan nan nan nan nan nan nan nan nan nan nan nan nan nan nan nan nan nan 258 nan 268 270 270 273
251 241 244 nan nan nan nan nan nan nan nan nan nan nan nan nan nan nan nan nan nan nan nan nan nan nan nan nan nan nan nan nan nan nan nan nan nan nan 272 nan 279 261 269
250 252 254 nan nan nan nan nan nan nan nan nan nan nan nan nan nan nan nan nan nan nan nan nan nan nan nan nan nan nan nan nan nan nan nan nan nan nan nan nan nan nan nan
nan nan nan nan nan nan nan nan nan nan nan nan nan nan nan nan nan nan nan nan nan nan nan nan nan nan nan nan nan nan nan nan nan nan nan nan nan nan nan nan nan nan nan
nan nan nan nan nan nan nan nan nan nan nan nan nan nan nan nan nan nan nan nan nan nan nan nan nan nan nan nan nan nan nan nan nan nan nan nan nan nan nan nan nan nan nan
nan nan nan nan nan nan nan nan nan nan nan nan nan nan nan nan nan nan nan nan nan nan nan nan nan nan nan nan nan nan nan nan nan nan nan nan nan nan nan nan nan nan nan
nan nan nan nan nan nan nan nan nan nan nan nan nan nan nan nan nan nan nan nan nan nan nan nan nan nan nan nan nan nan nan nan nan nan nan nan nan nan nan nan nan nan nan
nan nan nan nan nan nan nan nan nan nan nan nan nan nan nan nan nan nan nan nan nan nan nan nan nan nan nan nan nan nan nan nan nan nan nan nan nan nan nan nan nan nan nan
nan nan nan nan nan nan nan nan nan nan nan nan nan nan nan nan nan nan nan nan nan nan nan nan nan nan nan nan nan nan nan nan nan nan nan nan nan nan nan nan nan nan nan
nan nan nan nan nan nan nan nan nan nan nan nan nan nan nan nan nan nan nan nan nan nan nan nan nan nan nan nan nan nan nan nan nan nan nan nan nan nan nan nan nan nan nan
nan nan nan nan nan nan nan nan nan nan nan nan nan nan nan nan nan nan nan nan nan nan nan nan nan nan nan nan nan nan nan nan nan nan nan nan nan nan nan nan nan nan nan
nan nan nan nan nan nan nan nan nan nan nan nan nan nan nan nan nan nan nan nan nan nan nan nan nan nan nan nan nan nan nan nan nan nan nan nan nan nan nan nan nan nan nan
nan nan nan nan nan nan nan nan nan nan nan nan nan nan nan nan nan nan nan nan nan nan nan nan nan nan nan nan nan nan nan nan nan nan nan nan nan nan nan nan nan nan nan
nan nan nan nan nan nan nan nan nan nan nan nan nan nan nan nan nan nan nan nan nan nan nan nan nan nan nan nan nan nan nan nan nan nan nan nan nan nan nan nan nan nan nan
nan nan nan nan nan nan nan nan nan nan nan nan nan nan nan nan nan nan nan nan nan nan nan nan nan nan nan nan nan nan nan nan nan nan nan nan nan nan nan nan nan nan nan